NAVSTAR 43 (USA 132) 1 24876U 97035A 23340.83046380 .00000090 00000-0 00000+0 0 9993 2 24876 55.6145 134.6909 0075411 53.6177 307.0742 2.00564886193234 NAVSTAR 46 (USA 145) 1 25933U 99055A 23340.94136303 -.00000072 00000-0 00000-0 0 9991 2 25933 52.1947 335.5524 0127208 146.7442 222.5910 2.00559768177061 NAVSTAR 47 (USA 150) 1 26360U 00025A 23340.22499560 -.00000073 00000-0 00000-0 0 9994 2 26360 54.5090 56.8017 0041638 206.1023 167.5133 2.00564348172744 NAVSTAR 48 (USA 151) 1 26407U 00040A 23341.15880869 -.00000021 00000-0 00000+0 0 9994 2 26407 55.1546 251.8685 0151174 293.2441 236.0791 2.00557419171433 NAVSTAR 49 (USA 154) 1 26605U 00071A 23341.20155378 .00000083 00000-0 00000+0 0 9991 2 26605 55.2113 131.4383 0148218 257.5247 226.9594 2.00559966169013 NAVSTAR 50 (USA 156) 1 26690U 01004A 23340.84285458 -.00000062 00000-0 00000-0 0 9993 2 26690 54.4359 66.6381 0001506 332.6438 29.0804 1.91588696165857 NAVSTAR 51 (USA 166) 1 27663U 03005A 23340.76906444 -.00000024 00000-0 00000-0 0 9991 2 27663 55.1957 251.6950 0135965 45.5250 339.2503 2.00560723152790 NAVSTAR 52 (USA 168) 1 27704U 03010A 23340.92970986 -.00000076 00000-0 00000-0 0 9990 2 27704 55.1155 1.5915 0251920 321.0632 37.6607 2.00555544151591 NAVSTAR 53 (USA 175) 1 28129U 03058A 23340.02271338 -.00000070 00000-0 00000-0 0 9994 2 28129 54.3395 59.3239 0066781 332.1052 27.5674 2.00563132146259 NAVSTAR 54 (USA 177) 1 28190U 04009A 23340.26127453 -.00000059 00000-0 00000-0 0 9990 2 28190 55.6183 312.7719 0092111 141.8794 33.1676 2.00564498144416 NAVSTAR 55 (USA 178) 1 28361U 04023A 23340.36033580 .00000068 00000-0 00000-0 0 9993 2 28361 54.3404 124.1251 0147235 274.7123 145.2284 2.00562235142510 NAVSTAR 56 (USA 180) 1 28474U 04045A 23340.94344928 -.00000075 00000-0 00000-0 0 9996 2 28474 55.4430 1.9441 0164533 285.6731 73.8456 2.00536814139916 NAVSTAR 57 (USA 183) 1 28874U 05038A 23340.10804816 -.00000058 00000-0 00000-0 0 9999 2 28874 55.6678 310.2328 0140170 281.5525 166.5421 2.00569205133302 NAVSTAR 58 (USA 190) 1 29486U 06042A 23340.29106458 .00000087 00000-0 00000-0 0 9993 2 29486 54.6794 187.9708 0104840 35.2983 85.4622 2.00565436125863 NAVSTAR 59 (USA 192) 1 29601U 06052A 23341.04822050 -.00000020 00000-0 00000+0 0 9997 2 29601 55.2194 250.6493 0085661 79.7542 281.2529 2.00554795124930 NAVSTAR 60 (USA 196) 1 32260U 07047A 23340.36160253 .00000054 00000-0 00000-0 0 9998 2 32260 53.5107 118.2845 0152522 72.9605 288.6891 2.00574279118289 NAVSTAR 61 (USA 199) 1 32384U 07062A 23340.42600844 -.00000058 00000-0 00000-0 0 9999 2 32384 55.8019 311.0551 0023890 151.4473 25.1301 2.00563519116981 NAVSTAR 62 (USA 201) 1 32711U 08012A 23340.77482831 .00000095 00000-0 00000-0 0 9991 2 32711 54.4486 186.7609 0178526 236.4061 121.9501 2.00560824115233 NAVSTAR 64 (USA 206) 1 35752U 09043A 23340.31816516 -.00000063 00000-0 00000-0 0 9991 2 35752 55.5112 64.0066 0056191 70.3141 335.0850 2.00552767104837 NAVSTAR 65 (USA 213) 1 36585U 10022A 23340.58407696 -.00000017 00000-0 00000-0 0 9998 2 36585 54.5218 245.8223 0113599 60.1144 297.2175 2.00566834 99065 NAVSTAR 66 (USA 232) 1 37753U 11036A 23340.56275701 -.00000077 00000-0 00000-0 0 9996 2 37753 56.7547 7.8525 0127733 56.6958 9.2713 2.00523475 90751 NAVSTAR 67 (USA 239) 1 38833U 12053A 23340.94763682 .00000102 00000-0 00000+0 0 9995 2 38833 53.5115 181.3660 0147573 53.8855 307.5420 2.00568815 81817 NAVSTAR 68 (USA 242) 1 39166U 13023A 23340.81232360 -.00000059 00000-0 00000-0 0 9996 2 39166 55.2811 306.3639 0117966 41.6632 319.2266 2.00564202 77364 NAVSTAR 69 (USA 248) 1 39533U 14008A 23339.81750704 .00000080 00000-0 00000-0 0 9996 2 39533 53.5966 186.9832 0067318 215.2187 144.4055 2.00557054 71141 NAVSTAR 70 (USA 251) 1 39741U 14026A 23339.60215434 -.00000082 00000-0 00000-0 0 9993 2 39741 56.7054 7.4111 0032478 310.0558 49.7118 2.00550836 69995 NAVSTAR 71 (USA 256) 1 40105U 14045A 23340.68224141 .00000071 00000-0 00000-0 0 9992 2 40105 54.8514 125.3419 0027512 116.1166 244.1569 2.00552967 67553 NAVSTAR 72 (USA 258) 1 40294U 14068A 23340.55174395 -.00000058 00000-0 00000-0 0 9993 2 40294 56.2562 66.8093 0048545 62.4699 298.0417 2.00577975 66680 NAVSTAR 73 (USA 260) 1 40534U 15013A 23340.19877579 -.00000016 00000-0 00000-0 0 9999 2 40534 53.4201 242.4428 0085332 27.6035 332.9013 2.00548912 63295 NAVSTAR 74 (USA 262) 1 40730U 15033A 23340.85923795 -.00000059 00000-0 00000-0 0 9991 2 40730 54.7677 304.9309 0089863 14.8808 345.3780 2.00550111 61476 NAVSTAR 75 (USA 265) 1 41019U 15062A 23340.40925440 -.00000058 00000-0 00000-0 0 9993 2 41019 56.2389 66.6665 0093238 222.7241 136.5683 2.00562326 59305 NAVSTAR 76 (USA 266) 1 41328U 16007A 23340.49537831 .00000073 00000-0 00000-0 0 9994 2 41328 55.0528 126.1486 0073957 234.0152 125.2885 2.00571335 57314